Simultaneous Nadir Overpasses (SNOs) Predictions

Prediction of SNOs between GOES-14 and NPP Satellite Orbit:

Table of predicted SNOs for the next 14.0 days since TLE Epoch: 6/1/2024
Index Date Time (GOES-14) GOES-14 Lat,Lon NPP Lat,Lon Distance(km) Time Diff (sec)
1 06/01/2024 08:39:31 0.06,-108.60 -0.04,-108.30 34.68 80
2 06/03/2024 20:39:58 -0.04,-108.59 -0.17,-109.05 53.64 80
3 06/04/2024 20:23:52 -0.06,-108.59 0.84,-104.51 463.74 80
4 06/06/2024 08:42:58 0.02,-108.59 0.28,-109.79 136.17 80
5 06/07/2024 08:26:52 0.04,-108.58 -0.73,-105.25 380.63 80
6 06/08/2024 20:46:05 -0.00,-108.56 -0.46,-110.54 225.76 80
7 06/09/2024 20:29:58 -0.02,-108.56 0.55,-106.00 291.73 80
8 06/11/2024 08:49:04 -0.01,-108.58 0.62,-111.26 306.79 80
9 06/12/2024 08:32:57 0.01,-108.57 -0.39,-106.73 210.48 80
10 06/13/2024 20:52:11 0.03,-108.55 -0.73,-112.03 396.26 80
11 06/14/2024 20:36:04 0.01,-108.55 0.23,-107.48 121.59 80
